Simultaneous Nadir Overpasses (SNOs) Predictions

Prediction of SNOs between AQUA and GOES-15 Satellite Orbit:

Table of predicted SNOs for the next 14.0 days since TLE Epoch: 4/30/2022
Index Date Time (AQUA) AQUA Lat,Lon GOES-15 Lat,Lon Distance(km) Time Diff (sec)
1 05/01/2022 09:56:08 -0.62,-124.68 0.12,-128.14 393.78 80
2 05/01/2022 22:17:28 -0.45,-129.86 -0.11,-128.15 193.84 80
3 05/03/2022 22:05:01 0.16,-126.82 -0.11,-128.10 144.89 80
4 05/04/2022 10:26:13 0.90,-131.97 0.10,-128.07 442.82 80
5 05/05/2022 21:52:34 0.80,-123.80 -0.11,-128.05 483.34 80
6 05/06/2022 10:13:45 0.32,-128.93 0.10,-128.01 104.60 80
7 05/08/2022 10:01:18 -0.35,-125.90 0.11,-127.95 233.54 80
8 05/08/2022 22:22:38 -0.75,-131.08 -0.10,-127.95 355.07 80
9 05/10/2022 22:10:09 -0.16,-128.03 -0.10,-127.89 17.26 80
10 05/12/2022 21:57:41 0.51,-125.00 -0.11,-127.82 320.90 80
11 05/13/2022 10:18:52 0.59,-130.14 0.09,-127.79 266.55 80
